Location: Winthrop
(48.4780°N, 120.1850°W)
Time: 22:11:23
(UTC-07:00)

S-56A Canister/Altair - Pass Details

Date: 04 June 2023
Orbit: 640 x 2489 km, 38.9° (Epoch: 29 September)

Event Time Altitude Azimuth Distance (km) Brightness Sun altitude
Rises 00:11:20 0° 258° (WSW) 5,817 12.0 -18.3°
Reaches altitude 10° 00:15:00 10° 255° (WSW) 4,954 11.6 -18.4°
Maximum altitude 00:29:14 58° 182° (S) 2,779 9.9 -18.8°
Drops below altitude 10° 00:42:51 10° 108° (ESE) 4,755 11.3 -19.0°
Sets 00:46:17 0° 105° (ESE) 5,578 11.7 -19.0°
